Time,TemperatureF,DewpointF,PressureIn,WindDirection,WindDirectionDegrees,WindSpeedMPH,WindSpeedGustMPH,Humidity,HourlyPrecipIn,Conditions,Clouds,dailyrainin,SoftwareType,DateUTC
2013-07-08 00:01:00,72.5,69.7,29.96,SSE,168,0.0,0.0,91,0.00,,---,0.00,VWS V14.01,2013-07-08 05:01:00,
2013-07-08 00:06:00,72.3,69.5,29.96,SSE,168,0.0,0.0,91,0.00,,---,0.00,VWS V14.01,2013-07-08 05:06:00,
2013-07-08 00:11:00,72.2,69.4,29.96,SSE,168,0.0,0.0,91,0.00,,---,0.00,VWS V14.01,2013-07-08 05:11:00,
2013-07-08 00:16:00,72.1,69.7,29.96,SSE,168,0.0,0.0,92,0.00,,---,0.00,VWS V14.01,2013-07-08 05:16:00,
2013-07-08 00:21:00,72.0,69.6,29.96,SSE,168,0.0,0.0,92,0.00,,---,0.00,VWS V14.01,2013-07-08 05:21:00,
2013-07-08 00:26:00,71.9,69.4,29.96,SSE,168,0.0,0.0,92,0.00,,---,0.00,VWS V14.01,2013-07-08 05:26:00,
2013-07-08 00:31:00,71.8,69.3,29.96,SSE,168,0.0,0.0,92,0.00,,---,0.00,VWS V14.01,2013-07-08 05:31:00,
2013-07-08 00:36:00,71.6,69.2,29.96,SSE,168,0.0,0.0,92,0.00,,---,0.00,VWS V14.01,2013-07-08 05:36:00,
2013-07-08 00:41:00,71.6,69.2,29.96,SSE,168,0.0,0.0,92,0.00,,---,0.00,VWS V14.01,2013-07-08 05:41:00,
2013-07-08 00:46:00,71.5,69.1,29.95,SSE,168,0.0,0.0,92,0.00,,---,0.00,VWS V14.01,2013-07-08 05:46:00,
2013-07-08 00:51:00,71.5,69.4,29.95,SSE,168,0.0,0.0,93,0.00,,---,0.00,VWS V14.01,2013-07-08 05:51:00,
2013-07-08 00:56:00,71.5,69.4,29.95,SSE,168,0.0,0.0,93,0.00,,---,0.00,VWS V14.01,2013-07-08 05:56:00,
2013-07-08 01:01:00,71.5,69.4,29.95,SSE,168,0.0,0.0,93,0.00,,---,0.00,VWS V14.01,2013-07-08 06:01:00,
2013-07-08 01:06:00,71.4,69.3,29.95,SSE,168,0.0,0.0,93,0.00,,---,0.00,VWS V14.01,2013-07-08 06:06:00,
2013-07-08 01:11:00,71.3,69.2,29.95,SSE,168,0.0,0.0,93,0.00,,---,0.00,VWS V14.01,2013-07-08 06:11:00,
2013-07-08 01:16:00,71.3,69.2,29.95,SSE,168,0.0,0.0,93,0.00,,---,0.00,VWS V14.01,2013-07-08 06:16:00,
2013-07-08 01:21:00,71.2,69.1,29.95,SSE,168,0.0,0.0,93,0.00,,---,0.00,VWS V14.01,2013-07-08 06:21:00,
2013-07-08 01:26:00,71.1,69.0,29.95,SSE,168,0.0,0.0,93,0.00,,---,0.00,VWS V14.01,2013-07-08 06:26:00,
2013-07-08 01:31:00,70.9,68.8,29.94,SSE,168,0.0,0.0,93,0.00,,---,0.00,VWS V14.01,2013-07-08 06:31:00,
2013-07-08 01:36:00,70.7,68.6,29.94,SSE,168,0.0,0.0,93,0.00,,---,0.00,VWS V14.01,2013-07-08 06:36:00,
2013-07-08 01:41:00,70.6,68.5,29.94,SSE,168,0.0,0.0,93,0.00,,---,0.00,VWS V14.01,2013-07-08 06:41:00,
2013-07-08 01:46:00,70.5,68.4,29.95,SSE,168,0.0,0.0,93,0.00,,---,0.00,VWS V14.01,2013-07-08 06:46:00,
2013-07-08 01:51:00,70.4,68.3,29.95,SSE,168,0.0,0.0,93,0.00,,---,0.00,VWS V14.01,2013-07-08 06:51:00,
2013-07-08 01:56:00,70.3,68.2,29.95,SSE,168,0.0,0.0,93,0.00,,---,0.00,VWS V14.01,2013-07-08 06:56:00,
2013-07-08 02:01:00,70.1,68.0,29.95,SSE,168,0.0,0.0,93,0.00,,---,0.00,VWS V14.01,2013-07-08 07:01:00,
2013-07-08 02:06:00,70.1,68.0,29.95,SSE,168,0.0,0.0,93,0.00,,---,0.00,VWS V14.01,2013-07-08 07:06:00,
2013-07-08 02:11:00,69.9,67.8,29.95,SSE,168,0.0,0.0,93,0.00,,---,0.00,VWS V14.01,2013-07-08 07:11:00,
2013-07-08 02:16:00,69.8,67.7,29.95,SSE,168,0.0,0.0,93,0.00,,---,0.00,VWS V14.01,2013-07-08 07:16:00,
2013-07-08 02:21:00,69.7,67.9,29.95,SSE,168,0.0,0.0,94,0.00,,---,0.00,VWS V14.01,2013-07-08 07:21:00,
2013-07-08 02:26:00,69.7,67.9,29.95,SSE,168,0.0,0.0,94,0.00,,---,0.00,VWS V14.01,2013-07-08 07:26:00,
2013-07-08 02:31:00,69.6,67.8,29.95,SSE,168,0.0,0.0,94,0.00,,---,0.00,VWS V14.01,2013-07-08 07:31:00,
2013-07-08 02:36:00,69.6,67.8,29.95,SSE,168,0.0,0.0,94,0.00,,---,0.00,VWS V14.01,2013-07-08 07:36:00,
2013-07-08 02:41:00,69.4,67.6,29.95,SSE,168,0.0,0.0,94,0.00,,---,0.00,VWS V14.01,2013-07-08 07:41:00,
2013-07-08 02:46:00,69.4,67.6,29.95,SSE,168,0.0,0.0,94,0.00,,---,0.00,VWS V14.01,2013-07-08 07:46:00,
2013-07-08 02:51:00,69.4,67.6,29.95,SSE,168,0.0,0.0,94,0.00,,---,0.00,VWS V14.01,2013-07-08 07:51:00,
2013-07-08 02:56:00,69.3,67.5,29.95,SSE,168,0.0,0.0,94,0.00,,---,0.00,VWS V14.01,2013-07-08 07:56:00,
2013-07-08 03:01:00,69.2,67.4,29.95,SSE,168,0.0,0.0,94,0.00,,---,0.00,VWS V14.01,2013-07-08 08:01:00,
2013-07-08 03:06:00,69.1,67.3,29.95,SSE,168,0.0,0.0,94,0.00,,---,0.00,VWS V14.01,2013-07-08 08:06:00,
2013-07-08 03:11:00,69.1,67.3,29.95,SSE,168,0.0,0.0,94,0.00,,---,0.00,VWS V14.01,2013-07-08 08:11:00,
2013-07-08 03:16:00,69.0,67.2,29.95,SSE,168,0.0,0.0,94,0.00,,---,0.00,VWS V14.01,2013-07-08 08:16:00,
2013-07-08 03:21:00,69.0,67.2,29.95,SSE,168,0.0,0.0,94,0.00,,---,0.00,VWS V14.01,2013-07-08 08:21:00,
2013-07-08 03:26:00,69.0,67.5,29.95,SSE,168,0.0,0.0,95,0.00,,---,0.00,VWS V14.01,2013-07-08 08:26:00,
2013-07-08 03:31:00,68.9,67.4,29.96,SSE,168,0.0,0.0,95,0.00,,---,0.00,VWS V14.01,2013-07-08 08:31:00,
2013-07-08 03:36:00,68.9,67.4,29.96,SSE,168,0.0,0.0,95,0.00,,---,0.00,VWS V14.01,2013-07-08 08:36:00,
2013-07-08 03:41:00,69.1,67.6,29.96,SSE,168,0.0,0.0,95,0.00,,---,0.00,VWS V14.01,2013-07-08 08:41:00,
2013-07-08 03:46:00,69.1,67.6,29.95,SSE,168,0.0,0.0,95,0.00,,---,0.00,VWS V14.01,2013-07-08 08:46:00,
2013-07-08 03:51:00,68.9,67.4,29.95,SSE,168,0.0,0.0,95,0.00,,---,0.00,VWS V14.01,2013-07-08 08:51:00,
2013-07-08 03:56:00,68.9,67.4,29.95,SSE,168,0.0,0.0,95,0.00,,---,0.00,VWS V14.01,2013-07-08 08:56:00,
2013-07-08 04:01:00,68.9,67.4,29.96,SSE,168,0.0,0.0,95,0.00,,---,0.00,VWS V14.01,2013-07-08 09:01:00,
2013-07-08 04:06:00,69.2,67.7,29.96,SSE,168,0.0,0.0,95,0.00,,---,0.00,VWS V14.01,2013-07-08 09:06:00,
2013-07-08 04:11:00,69.4,67.9,29.96,SSE,168,0.0,0.0,95,0.00,,---,0.00,VWS V14.01,2013-07-08 09:11:00,
2013-07-08 04:16:00,69.6,68.1,29.96,SSE,168,0.0,0.0,95,0.00,,---,0.00,VWS V14.01,2013-07-08 09:16:00,
2013-07-08 04:21:00,70.1,68.6,29.96,SSE,168,0.0,0.0,95,0.00,,---,0.00,VWS V14.01,2013-07-08 09:21:00,
2013-07-08 04:26:00,70.5,69.0,29.96,SSE,168,0.0,0.0,95,0.00,,---,0.00,VWS V14.01,2013-07-08 09:26:00,
2013-07-08 04:31:00,70.7,69.2,29.96,SSE,168,0.0,0.0,95,0.00,,---,0.00,VWS V14.01,2013-07-08 09:31:00,
2013-07-08 04:36:00,70.8,69.3,29.96,SSE,168,0.0,0.0,95,0.00,,---,0.00,VWS V14.01,2013-07-08 09:36:00,
2013-07-08 04:41:00,70.9,69.4,29.96,SSE,168,0.0,0.0,95,0.00,,---,0.00,VWS V14.01,2013-07-08 09:41:00,
2013-07-08 04:46:00,71.1,69.6,29.96,SSE,168,0.0,0.0,95,0.00,,---,0.00,VWS V14.01,2013-07-08 09:46:00,
2013-07-08 04:51:00,71.0,69.5,29.96,SSE,168,0.0,0.0,95,0.00,,---,0.00,VWS V14.01,2013-07-08 09:51:00,
2013-07-08 04:56:00,71.2,69.7,29.96,SSE,168,0.0,0.0,95,0.00,,---,0.00,VWS V14.01,2013-07-08 09:56:00,
2013-07-08 05:01:00,71.2,69.7,29.96,SSE,168,0.0,0.0,95,0.00,,---,0.00,VWS V14.01,2013-07-08 10:01:00,
2013-07-08 05:06:00,71.1,69.6,29.96,SSE,168,0.0,0.0,95,0.00,,---,0.00,VWS V14.01,2013-07-08 10:06:00,
2013-07-08 05:11:00,70.9,69.4,29.96,SSE,168,0.0,0.0,95,0.00,,---,0.00,VWS V14.01,2013-07-08 10:11:00,
2013-07-08 05:16:00,70.8,69.3,29.97,SSE,168,0.0,0.0,95,0.00,,---,0.00,VWS V14.01,2013-07-08 10:16:00,
2013-07-08 05:21:00,70.6,69.1,29.97,SSE,168,0.0,0.0,95,0.00,,---,0.00,VWS V14.01,2013-07-08 10:21:00,
2013-07-08 05:26:00,70.6,69.1,29.97,SSE,168,0.0,0.0,95,0.00,,---,0.00,VWS V14.01,2013-07-08 10:26:00,
2013-07-08 05:31:00,70.5,69.0,29.97,SSE,168,0.0,0.0,95,0.00,,---,0.00,VWS V14.01,2013-07-08 10:31:00,
2013-07-08 05:36:00,70.6,69.1,29.97,SSE,168,0.0,0.0,95,0.00,,---,0.00,VWS V14.01,2013-07-08 10:36:00,
2013-07-08 05:41:00,70.2,68.7,29.97,SSE,167,0.0,0.0,95,0.00,,---,0.00,VWS V14.01,2013-07-08 10:41:00,
2013-07-08 05:46:00,70.4,68.9,29.97,SSE,168,0.0,0.0,95,0.00,,---,0.00,VWS V14.01,2013-07-08 10:46:00,
2013-07-08 05:51:00,70.6,69.1,29.97,SSE,167,0.0,0.0,95,0.00,,---,0.00,VWS V14.01,2013-07-08 10:51:00,
2013-07-08 05:56:00,70.8,69.3,29.97,SSE,168,0.0,0.0,95,0.00,,---,0.00,VWS V14.01,2013-07-08 10:56:00,
2013-07-08 06:01:00,71.0,69.5,29.97,SSE,168,0.0,0.0,95,0.00,,---,0.00,VWS V14.01,2013-07-08 11:01:00,
2013-07-08 06:07:00,71.1,69.6,29.97,SSE,167,0.0,0.0,95,0.00,,---,0.00,VWS V14.01,2013-07-08 11:07:00,
2013-07-08 06:12:00,71.3,69.8,29.97,SSE,168,0.0,0.0,95,0.00,,---,0.00,VWS V14.01,2013-07-08 11:12:00,
2013-07-08 06:17:00,71.3,69.8,29.97,SSE,168,0.0,0.0,95,0.00,,---,0.00,VWS V14.01,2013-07-08 11:17:00,
2013-07-08 06:22:00,71.5,70.0,29.97,South,182,0.0,0.0,95,0.00,,---,0.00,VWS V14.01,2013-07-08 11:22:00,
2013-07-08 06:27:00,71.7,70.2,29.97,South,184,0.0,0.0,95,0.00,,---,0.00,VWS V14.01,2013-07-08 11:27:00,
2013-07-08 06:32:00,71.9,70.4,29.97,SSE,165,0.0,0.0,95,0.00,,---,0.00,VWS V14.01,2013-07-08 11:32:00,
2013-07-08 06:37:00,72.2,70.7,29.97,SSE,163,0.0,0.0,95,0.00,,---,0.00,VWS V14.01,2013-07-08 11:37:00,
2013-07-08 06:42:00,72.4,70.9,29.97,SSE,158,0.0,0.0,95,0.00,,---,0.00,VWS V14.01,2013-07-08 11:42:00,
2013-07-08 06:47:00,72.7,71.2,29.97,South,172,0.0,0.0,95,0.00,,---,0.00,VWS V14.01,2013-07-08 11:47:00,
2013-07-08 06:52:00,73.0,71.5,29.97,SSE,151,0.0,0.0,95,0.00,,---,0.00,VWS V14.01,2013-07-08 11:52:00,
2013-07-08 06:57:00,73.3,71.8,29.97,SSE,151,0.0,0.0,95,0.00,,---,0.00,VWS V14.01,2013-07-08 11:57:00,
2013-07-08 07:02:00,73.6,71.8,29.97,SSE,153,0.0,0.0,94,0.00,,---,0.00,VWS V14.01,2013-07-08 12:02:00,
2013-07-08 07:07:00,74.1,72.3,29.97,SSE,153,0.0,0.0,94,0.00,,---,0.00,VWS V14.01,2013-07-08 12:07:00,
2013-07-08 07:12:00,74.4,72.6,29.97,South,184,0.0,0.0,94,0.00,,---,0.00,VWS V14.01,2013-07-08 12:12:00,
2013-07-08 07:17:00,74.7,72.6,29.98,SSE,167,0.0,0.0,93,0.00,,---,0.00,VWS V14.01,2013-07-08 12:17:00,
2013-07-08 07:22:00,75.0,72.8,29.98,SE,142,0.0,0.0,93,0.00,,---,0.00,VWS V14.01,2013-07-08 12:22:00,
2013-07-08 07:27:00,75.4,72.9,29.98,SSE,155,0.0,0.0,92,0.00,,---,0.00,VWS V14.01,2013-07-08 12:27:00,
2013-07-08 07:32:00,75.9,73.1,29.99,SSW,208,0.0,0.0,91,0.00,,---,0.00,VWS V14.01,2013-07-08 12:32:00,
2013-07-08 07:37:00,76.3,73.5,29.99,SSE,155,0.0,0.0,91,0.00,,---,0.00,VWS V14.01,2013-07-08 12:37:00,
2013-07-08 07:42:00,76.7,73.6,29.99,SSE,155,0.0,0.0,90,0.00,,---,0.00,VWS V14.01,2013-07-08 12:42:00,
2013-07-08 07:47:00,77.1,73.6,29.98,SSE,155,0.0,0.0,89,0.00,,---,0.00,VWS V14.01,2013-07-08 12:47:00,
2013-07-08 07:52:00,77.5,73.7,29.98,SSE,155,0.0,0.0,88,0.00,,---,0.00,VWS V14.01,2013-07-08 12:52:00,
2013-07-08 07:57:00,77.7,73.9,29.98,SE,125,0.0,0.0,88,0.00,,---,0.00,VWS V14.01,2013-07-08 12:57:00,
2013-07-08 08:02:00,77.9,73.7,29.98,South,177,0.0,0.0,87,0.00,,---,0.00,VWS V14.01,2013-07-08 13:02:00,
2013-07-08 08:07:00,78.5,74.3,29.98,SE,134,0.0,0.0,87,0.00,,---,0.00,VWS V14.01,2013-07-08 13:07:00,
2013-07-08 08:12:00,78.7,73.8,29.98,SSW,199,0.0,0.0,85,0.00,,---,0.00,VWS V14.01,2013-07-08 13:12:00,
2013-07-08 08:17:00,78.7,73.8,29.99,SSE,161,0.0,0.0,85,0.00,,---,0.00,VWS V14.01,2013-07-08 13:17:00,
2013-07-08 08:22:00,79.2,74.3,29.99,SSE,163,0.0,0.0,85,0.00,,---,0.00,VWS V14.01,2013-07-08 13:22:00,
2013-07-08 08:27:00,79.4,74.2,29.99,South,171,0.0,0.0,84,0.00,,---,0.00,VWS V14.01,2013-07-08 13:27:00,
2013-07-08 08:32:00,79.7,74.4,29.99,South,171,0.0,0.0,84,0.00,,---,0.00,VWS V14.01,2013-07-08 13:32:00,
2013-07-08 08:37:00,79.9,74.6,29.99,SSE,165,0.0,0.0,84,0.00,,---,0.00,VWS V14.01,2013-07-08 13:37:00,
2013-07-08 08:42:00,80.3,75.0,29.99,SSE,158,0.0,0.0,84,0.00,,---,0.00,VWS V14.01,2013-07-08 13:42:00,
2013-07-08 08:47:00,80.6,75.0,29.99,SSE,161,0.0,0.0,83,0.00,,---,0.00,VWS V14.01,2013-07-08 13:47:00,
2013-07-08 08:52:00,80.9,75.3,29.99,SSE,162,0.0,0.0,83,0.00,,---,0.00,VWS V14.01,2013-07-08 13:52:00,
2013-07-08 08:57:00,81.3,75.3,29.99,SSE,161,0.0,0.0,82,0.00,,---,0.00,VWS V14.01,2013-07-08 13:57:00,
2013-07-08 09:02:00,81.6,75.2,30.00,SSE,161,0.0,0.0,81,0.00,,---,0.00,VWS V14.01,2013-07-08 14:02:00,
2013-07-08 09:07:00,81.4,75.0,30.00,SSE,150,0.0,0.0,81,0.00,,---,0.00,VWS V14.01,2013-07-08 14:07:00,
2013-07-08 09:12:00,81.2,74.8,30.00,SSE,153,0.0,0.0,81,0.00,,---,0.00,VWS V14.01,2013-07-08 14:12:00,
2013-07-08 09:17:00,81.6,75.2,30.00,SSE,158,0.0,0.0,81,0.00,,---,0.00,VWS V14.01,2013-07-08 14:17:00,
2013-07-08 09:22:00,81.8,75.4,30.00,SSE,150,0.0,0.0,81,0.00,,---,0.00,VWS V14.01,2013-07-08 14:22:00,
2013-07-08 09:27:00,82.2,75.8,30.00,SSE,157,0.0,0.0,81,0.00,,---,0.00,VWS V14.01,2013-07-08 14:27:00,
2013-07-08 09:32:00,82.9,76.1,30.00,South,171,0.0,0.0,80,0.00,,---,0.00,VWS V14.01,2013-07-08 14:32:00,
2013-07-08 09:37:00,83.6,76.0,30.00,WSW,250,0.0,0.0,78,0.00,,---,0.00,VWS V14.01,2013-07-08 14:37:00,
2013-07-08 09:42:00,84.0,76.0,30.00,WSW,255,0.0,0.0,77,0.00,,---,0.00,VWS V14.01,2013-07-08 14:42:00,
2013-07-08 09:47:00,84.2,76.2,30.00,WSW,238,0.0,0.0,77,0.00,,---,0.00,VWS V14.01,2013-07-08 14:47:00,
2013-07-08 09:52:00,84.5,76.1,30.00,SW,219,0.0,0.0,76,0.00,,---,0.00,VWS V14.01,2013-07-08 14:52:00,
2013-07-08 09:57:00,84.5,75.7,30.00,WSW,240,0.0,0.0,75,0.00,,---,0.00,VWS V14.01,2013-07-08 14:57:00,
2013-07-08 10:02:00,84.3,75.5,30.00,SW,220,0.0,0.0,75,0.00,,---,0.00,VWS V14.01,2013-07-08 15:02:00,
2013-07-08 10:07:00,84.3,75.5,30.00,SW,221,0.0,0.0,75,0.00,,---,0.00,VWS V14.01,2013-07-08 15:07:00,
2013-07-08 10:12:00,84.6,75.8,30.00,SSE,160,0.0,0.0,75,0.00,,---,0.00,VWS V14.01,2013-07-08 15:12:00,
2013-07-08 10:17:00,84.3,75.5,30.00,WNW,288,0.0,0.0,75,0.00,,---,0.00,VWS V14.01,2013-07-08 15:17:00,
2013-07-08 10:22:00,84.8,76.0,30.00,South,172,0.0,0.0,75,0.00,,---,0.00,VWS V14.01,2013-07-08 15:22:00,
2013-07-08 10:27:00,85.3,75.7,30.00,WNW,292,0.0,0.0,73,0.00,,---,0.00,VWS V14.01,2013-07-08 15:27:00,
2013-07-08 10:32:00,85.4,75.3,30.00,South,173,0.0,0.0,72,0.00,,---,0.00,VWS V14.01,2013-07-08 15:32:00,
2013-07-08 10:37:00,85.3,75.2,30.00,West,278,0.0,0.0,72,0.00,,---,0.00,VWS V14.01,2013-07-08 15:37:00,
2013-07-08 10:42:00,85.3,75.7,30.00,NW,324,0.0,0.0,73,0.00,,---,0.00,VWS V14.01,2013-07-08 15:42:00,
2013-07-08 10:47:00,85.4,75.8,30.01,West,275,0.0,0.0,73,0.00,,---,0.00,VWS V14.01,2013-07-08 15:47:00,
2013-07-08 10:52:00,85.6,75.5,30.01,SSW,198,0.0,0.0,72,0.00,,---,0.00,VWS V14.01,2013-07-08 15:52:00,
2013-07-08 10:57:00,86.0,75.9,30.01,SW,220,0.0,0.0,72,0.00,,---,0.00,VWS V14.01,2013-07-08 15:57:00,
2013-07-08 11:02:00,86.4,75.5,30.01,NW,319,0.0,0.0,70,0.00,,---,0.00,VWS V14.01,2013-07-08 16:02:00,
2013-07-08 11:07:00,86.8,75.8,30.01,WNW,298,0.0,0.0,70,0.00,,---,0.00,VWS V14.01,2013-07-08 16:07:00,
2013-07-08 11:12:00,87.5,75.2,30.01,WSW,252,0.0,0.0,67,0.00,,---,0.00,VWS V14.01,2013-07-08 16:12:00,
2013-07-08 11:17:00,88.1,75.3,30.01,SW,235,0.0,0.0,66,0.00,,---,0.00,VWS V14.01,2013-07-08 16:17:00,
2013-07-08 11:22:00,88.1,75.3,30.01,SW,236,0.0,0.0,66,0.00,,---,0.00,VWS V14.01,2013-07-08 16:22:00,
2013-07-08 11:27:00,87.9,75.6,30.01,SW,235,0.0,0.0,67,0.00,,---,0.00,VWS V14.01,2013-07-08 16:27:00,
2013-07-08 11:32:00,88.2,75.9,30.01,WSW,239,0.0,0.0,67,0.00,,---,0.00,VWS V14.01,2013-07-08 16:32:00,
2013-07-08 11:37:00,88.3,75.5,30.01,West,272,0.0,0.0,66,0.00,,---,0.00,VWS V14.01,2013-07-08 16:37:00,
2013-07-08 11:42:00,88.4,75.6,30.01,West,271,0.0,0.0,66,0.00,,---,0.00,VWS V14.01,2013-07-08 16:42:00,
2013-07-08 11:47:00,88.6,74.9,30.00,SW,232,0.0,0.0,64,0.00,,---,0.00,VWS V14.01,2013-07-08 16:47:00,
2013-07-08 11:52:00,89.2,75.0,30.00,SW,233,0.0,0.0,63,0.00,,---,0.00,VWS V14.01,2013-07-08 16:52:00,
2013-07-08 11:57:00,90.1,74.3,30.00,SW,233,0.0,0.0,60,0.00,,---,0.00,VWS V14.01,2013-07-08 16:57:00,
2013-07-08 12:02:00,90.8,75.0,30.00,SW,233,0.0,0.0,60,0.00,,---,0.00,VWS V14.01,2013-07-08 17:02:00,
2013-07-08 12:07:00,91.8,75.4,30.00,South,185,0.0,0.0,59,0.00,,---,0.00,VWS V14.01,2013-07-08 17:07:00,
2013-07-08 12:13:00,91.8,74.9,30.00,SSE,168,0.0,0.0,58,0.00,,---,0.00,VWS V14.01,2013-07-08 17:13:00,
2013-07-08 12:18:00,91.3,73.9,30.00,South,172,0.0,0.0,57,0.00,,---,0.00,VWS V14.01,2013-07-08 17:18:00,
2013-07-08 12:23:00,90.5,74.2,30.00,South,176,0.0,5.0,59,0.00,,---,0.00,VWS V14.01,2013-07-08 17:23:00,
2013-07-08 12:28:00,90.9,75.1,30.00,NW,304,0.0,5.0,60,0.00,,---,0.00,VWS V14.01,2013-07-08 17:28:00,
2013-07-08 12:33:00,91.1,73.8,30.00,ESE,120,0.0,5.0,57,0.00,,---,0.00,VWS V14.01,2013-07-08 17:33:00,
2013-07-08 12:38:00,90.6,74.8,30.00,SE,133,0.0,6.0,60,0.00,,---,0.00,VWS V14.01,2013-07-08 17:38:00,
2013-07-08 12:43:00,91.3,74.5,30.00,South,171,0.0,6.0,58,0.00,,---,0.00,VWS V14.01,2013-07-08 17:43:00,
2013-07-08 12:48:00,92.4,75.0,30.00,South,171,2.0,6.0,57,0.00,,---,0.00,VWS V14.01,2013-07-08 17:48:00,
2013-07-08 12:53:00,92.3,74.3,30.00,SSE,159,0.0,6.0,56,0.00,,---,0.00,VWS V14.01,2013-07-08 17:53:00,
2013-07-08 12:59:00,92.5,72.9,30.00,SSE,163,1.0,6.0,53,0.00,,---,0.00,VWS V14.01,2013-07-08 17:59:00,
2013-07-08 13:04:00,93.1,74.6,29.99,WSW,250,0.0,0.0,55,0.00,,---,0.00,VWS V14.01,2013-07-08 18:04:00,
2013-07-08 13:09:00,92.9,75.4,29.99,SSE,159,0.0,3.0,57,0.00,,---,0.00,VWS V14.01,2013-07-08 18:09:00,
2013-07-08 13:14:00,91.7,74.8,29.99,ENE,74,0.0,3.0,58,0.00,,---,0.00,VWS V14.01,2013-07-08 18:14:00,
2013-07-08 13:19:00,91.6,74.7,29.98,SSE,155,2.0,5.0,58,0.00,,---,0.00,VWS V14.01,2013-07-08 18:19:00,
2013-07-08 13:24:00,92.3,75.4,29.98,South,169,1.0,5.0,58,0.00,,---,0.00,VWS V14.01,2013-07-08 18:24:00,
2013-07-08 13:30:00,93.3,76.8,29.98,South,169,0.0,5.0,59,0.00,,---,0.00,VWS V14.01,2013-07-08 18:30:00,
2013-07-08 13:35:00,92.8,74.8,29.98,SSE,165,1.0,3.0,56,0.00,,---,0.00,VWS V14.01,2013-07-08 18:35:00,
2013-07-08 13:40:00,92.6,75.2,29.98,SSE,168,4.0,4.0,57,0.00,,---,0.00,VWS V14.01,2013-07-08 18:40:00,
2013-07-08 13:45:00,92.6,75.2,29.98,East,84,2.0,5.0,57,0.00,,---,0.00,VWS V14.01,2013-07-08 18:45:00,
2013-07-08 13:50:00,92.2,74.8,29.98,South,172,0.0,5.0,57,0.00,,---,0.00,VWS V14.01,2013-07-08 18:50:00,
2013-07-08 13:56:00,92.1,75.7,29.98,NE,42,0.0,5.0,59,0.00,,---,0.00,VWS V14.01,2013-07-08 18:56:00,
2013-07-08 14:01:00,91.7,75.3,29.98,SSW,199,0.0,5.0,59,0.00,,---,0.00,VWS V14.01,2013-07-08 19:01:00,
2013-07-08 14:06:00,90.6,74.8,29.97,SSE,161,1.0,5.0,60,0.00,,---,0.00,VWS V14.01,2013-07-08 19:06:00,
2013-07-08 14:11:00,90.5,75.2,29.97,South,189,0.0,5.0,61,0.00,,---,0.00,VWS V14.01,2013-07-08 19:11:00,
2013-07-08 14:16:00,91.7,74.8,29.97,SSE,154,0.0,5.0,58,0.00,,---,0.00,VWS V14.01,2013-07-08 19:16:00,
2013-07-08 14:21:00,91.9,75.5,29.97,South,170,0.0,5.0,59,0.00,,---,0.00,VWS V14.01,2013-07-08 19:21:00,
2013-07-08 14:26:00,91.6,75.2,29.97,South,169,0.0,5.0,59,0.00,,---,0.00,VWS V14.01,2013-07-08 19:26:00,
2013-07-08 14:31:00,92.4,76.0,29.97,SSW,196,1.0,5.0,59,0.00,,---,0.00,VWS V14.01,2013-07-08 19:31:00,
2013-07-08 14:36:00,92.9,75.9,29.97,South,170,0.0,5.0,58,0.00,,---,0.00,VWS V14.01,2013-07-08 19:36:00,
2013-07-08 14:41:00,93.4,75.4,29.97,South,170,0.0,5.0,56,0.00,,---,0.00,VWS V14.01,2013-07-08 19:41:00,
2013-07-08 14:46:00,93.4,75.9,29.97,East,80,0.0,5.0,57,0.00,,---,0.00,VWS V14.01,2013-07-08 19:46:00,
2013-07-08 14:52:00,92.6,75.2,29.97,South,183,0.0,7.0,57,0.00,,---,0.00,VWS V14.01,2013-07-08 19:52:00,
2013-07-08 14:57:00,93.4,74.8,29.97,South,188,0.0,7.0,55,0.00,,---,0.00,VWS V14.01,2013-07-08 19:57:00,
2013-07-08 15:02:00,94.1,72.6,29.96,WSW,256,1.0,1.0,50,0.00,,---,0.00,VWS V14.01,2013-07-08 20:02:00,
2013-07-08 15:08:00,94.3,74.0,29.96,SW,223,0.0,3.0,52,0.00,,---,0.00,VWS V14.01,2013-07-08 20:08:00,
2013-07-08 15:13:00,94.5,74.2,29.96,SW,227,0.0,3.0,52,0.00,,---,0.00,VWS V14.01,2013-07-08 20:13:00,
2013-07-08 15:19:00,94.3,72.8,29.95,SSW,192,0.0,6.0,50,0.00,,---,0.00,VWS V14.01,2013-07-08 20:19:00,
2013-07-08 15:24:00,93.8,72.4,29.95,SSE,150,0.0,7.0,50,0.00,,---,0.00,VWS V14.01,2013-07-08 20:24:00,
2013-07-08 15:30:00,92.1,71.4,29.95,SSE,158,3.0,7.0,51,0.00,,---,0.00,VWS V14.01,2013-07-08 20:30:00,
2013-07-08 15:35:00,92.2,72.1,29.94,SSE,168,0.0,1.0,52,0.00,,---,0.00,VWS V14.01,2013-07-08 20:35:00,
2013-07-08 15:41:00,93.1,72.9,29.94,South,179,0.0,6.0,52,0.00,,---,0.00,VWS V14.01,2013-07-08 20:41:00,
2013-07-08 15:46:00,94.4,72.9,29.94,South,178,0.0,6.0,50,0.00,,---,0.00,VWS V14.01,2013-07-08 20:46:00,
2013-07-08 15:51:00,94.8,72.1,29.94,SSE,164,0.0,6.0,48,0.00,,---,0.00,VWS V14.01,2013-07-08 20:51:00,
2013-07-08 15:56:00,95.2,73.6,29.94,SSE,166,0.0,6.0,50,0.00,,---,0.00,VWS V14.01,2013-07-08 20:56:00,
2013-07-08 16:01:00,95.7,73.5,29.94,WNW,296,0.0,6.0,49,0.00,,---,0.00,VWS V14.01,2013-07-08 21:01:00,
2013-07-08 16:06:00,96.4,74.1,29.94,SSE,149,3.0,3.0,49,0.00,,---,0.00,VWS V14.01,2013-07-08 21:06:00,
2013-07-08 16:11:00,95.9,73.7,29.94,West,265,0.0,3.0,49,0.00,,---,0.00,VWS V14.01,2013-07-08 21:11:00,
2013-07-08 16:16:00,95.6,73.4,29.94,SSW,205,0.0,4.0,49,0.00,,---,0.00,VWS V14.01,2013-07-08 21:16:00,
2013-07-08 16:21:00,95.3,73.7,29.94,SSW,205,0.0,4.0,50,0.00,,---,0.00,VWS V14.01,2013-07-08 21:21:00,
2013-07-08 16:26:00,95.0,73.5,29.94,West,281,0.0,4.0,50,0.00,,---,0.00,VWS V14.01,2013-07-08 21:26:00,
2013-07-08 16:32:00,94.8,72.7,29.94,West,273,0.0,4.0,49,0.00,,---,0.00,VWS V14.01,2013-07-08 21:32:00,
2013-07-08 16:37:00,94.7,72.0,29.94,SSW,199,0.0,1.0,48,0.00,,---,0.00,VWS V14.01,2013-07-08 21:37:00,
2013-07-08 16:42:00,94.6,73.1,29.94,SSW,198,0.0,1.0,50,0.00,,---,0.00,VWS V14.01,2013-07-08 21:42:00,
2013-07-08 16:48:00,94.5,73.6,29.93,SSW,193,0.0,1.0,51,0.00,,---,0.00,VWS V14.01,2013-07-08 21:48:00,
2013-07-08 16:53:00,94.6,74.3,29.93,SSW,194,0.0,1.0,52,0.00,,---,0.00,VWS V14.01,2013-07-08 21:53:00,
2013-07-08 16:58:00,94.8,73.9,29.93,SSW,194,0.0,1.0,51,0.00,,---,0.00,VWS V14.01,2013-07-08 21:58:00,
2013-07-08 17:03:00,95.0,74.1,29.93,SSW,195,0.0,1.0,51,0.00,,---,0.00,VWS V14.01,2013-07-08 22:03:00,
2013-07-08 17:08:00,94.9,73.4,29.93,SSW,194,0.0,1.0,50,0.00,,---,0.00,VWS V14.01,2013-07-08 22:08:00,
2013-07-08 17:13:00,94.9,73.9,29.93,West,281,2.0,3.0,51,0.00,,---,0.00,VWS V14.01,2013-07-08 22:13:00,
2013-07-08 17:19:00,94.8,73.3,29.92,WNW,298,3.0,4.0,50,0.00,,---,0.00,VWS V14.01,2013-07-08 22:19:00,
2013-07-08 17:24:00,94.1,72.6,29.92,WNW,290,0.0,4.0,50,0.00,,---,0.00,VWS V14.01,2013-07-08 22:24:00,
2013-07-08 17:29:00,93.5,73.2,29.92,WNW,291,0.0,4.0,52,0.00,,---,0.00,VWS V14.01,2013-07-08 22:29:00,
2013-07-08 17:34:00,93.0,73.9,29.92,WNW,290,0.0,1.0,54,0.00,,---,0.00,VWS V14.01,2013-07-08 22:34:00,
2013-07-08 17:39:00,92.7,74.7,29.92,WNW,291,0.0,1.0,56,0.00,,---,0.00,VWS V14.01,2013-07-08 22:39:00,
2013-07-08 17:44:00,92.8,74.8,29.92,WNW,299,1.0,4.0,56,0.00,,---,0.00,VWS V14.01,2013-07-08 22:44:00,
2013-07-08 17:50:00,92.5,75.1,29.92,WNW,299,0.0,4.0,57,0.00,,---,0.00,VWS V14.01,2013-07-08 22:50:00,
2013-07-08 17:55:00,92.4,74.4,29.92,WNW,298,0.0,4.0,56,0.00,,---,0.00,VWS V14.01,2013-07-08 22:55:00,
2013-07-08 18:00:00,92.0,73.5,29.92,WNW,298,0.0,4.0,55,0.00,,---,0.00,VWS V14.01,2013-07-08 23:00:00,
2013-07-08 18:05:00,92.0,75.1,29.92,WNW,298,0.0,0.0,58,0.00,,---,0.00,VWS V14.01,2013-07-08 23:05:00,
2013-07-08 18:10:00,92.2,75.3,29.92,WNW,297,0.0,0.0,58,0.00,,---,0.00,VWS V14.01,2013-07-08 23:10:00,
2013-07-08 18:16:00,92.5,75.1,29.92,WNW,298,0.0,0.0,57,0.00,,---,0.00,VWS V14.01,2013-07-08 23:16:00,
2013-07-08 18:21:00,92.6,75.7,29.92,WNW,298,0.0,0.0,58,0.00,,---,0.00,VWS V14.01,2013-07-08 23:21:00,
2013-07-08 18:26:00,92.2,74.8,29.92,WNW,298,0.0,0.0,57,0.00,,---,0.00,VWS V14.01,2013-07-08 23:26:00,
2013-07-08 18:32:00,91.9,75.0,29.92,WNW,297,0.0,0.0,58,0.00,,---,0.00,VWS V14.01,2013-07-08 23:32:00,
2013-07-08 18:37:00,91.9,75.0,29.92,WNW,298,0.0,0.0,58,0.00,,---,0.00,VWS V14.01,2013-07-08 23:37:00,
2013-07-08 18:42:00,91.5,74.1,29.92,WNW,296,0.0,0.0,57,0.00,,---,0.00,VWS V14.01,2013-07-08 23:42:00,
2013-07-08 18:47:00,91.1,74.8,29.92,WNW,298,0.0,0.0,59,0.00,,---,0.00,VWS V14.01,2013-07-08 23:47:00,
2013-07-08 18:52:00,90.8,75.0,29.92,WNW,298,0.0,0.0,60,0.00,,---,0.00,VWS V14.01,2013-07-08 23:52:00,
2013-07-08 18:57:00,90.4,74.6,29.92,WNW,296,0.0,0.0,60,0.00,,---,0.00,VWS V14.01,2013-07-08 23:57:00,
2013-07-08 19:02:00,90.2,74.9,29.92,WNW,297,0.0,0.0,61,0.00,,---,0.00,VWS V14.01,2013-07-09 00:02:00,
2013-07-08 19:07:00,90.0,74.8,29.92,WNW,297,0.0,0.0,61,0.00,,---,0.00,VWS V14.01,2013-07-09 00:07:00,
2013-07-08 19:12:00,89.6,74.4,29.92,WNW,297,0.0,0.0,61,0.00,,---,0.00,VWS V14.01,2013-07-09 00:12:00,
2013-07-08 19:17:00,89.1,74.9,29.92,WNW,298,0.0,0.0,63,0.00,,---,0.00,VWS V14.01,2013-07-09 00:17:00,
2013-07-08 19:23:00,88.5,74.3,29.92,WNW,297,0.0,0.0,63,0.00,,---,0.00,VWS V14.01,2013-07-09 00:23:00,
2013-07-08 19:28:00,87.9,74.2,29.92,WNW,297,0.0,0.0,64,0.00,,---,0.00,VWS V14.01,2013-07-09 00:28:00,
2013-07-08 19:33:00,87.4,74.7,29.92,WNW,297,0.0,0.0,66,0.00,,---,0.00,VWS V14.01,2013-07-09 00:33:00,
2013-07-08 19:38:00,87.1,75.3,29.92,WNW,298,0.0,0.0,68,0.00,,---,0.00,VWS V14.01,2013-07-09 00:38:00,
2013-07-08 19:43:00,86.7,75.3,29.92,WNW,297,0.0,0.0,69,0.00,,---,0.00,VWS V14.01,2013-07-09 00:43:00,
2013-07-08 19:49:00,86.3,75.4,29.92,WNW,297,0.0,0.0,70,0.00,,---,0.00,VWS V14.01,2013-07-09 00:49:00,
2013-07-08 19:54:00,85.8,74.9,29.92,WNW,298,0.0,0.0,70,0.00,,---,0.00,VWS V14.01,2013-07-09 00:54:00,
2013-07-08 19:59:00,85.3,74.8,29.92,WNW,298,0.0,0.0,71,0.00,,---,0.00,VWS V14.01,2013-07-09 00:59:00,
2013-07-08 20:04:00,84.8,74.8,29.92,WNW,298,0.0,0.0,72,0.00,,---,0.00,VWS V14.01,2013-07-09 01:04:00,
2013-07-08 20:09:00,84.2,74.6,29.92,WNW,297,0.0,0.0,73,0.00,,---,0.00,VWS V14.01,2013-07-09 01:09:00,
2013-07-08 20:14:00,83.7,74.1,29.92,WNW,297,0.0,0.0,73,0.00,,---,0.00,VWS V14.01,2013-07-09 01:14:00,
2013-07-08 20:19:00,83.2,74.1,29.92,WNW,297,0.0,0.0,74,0.00,,---,0.00,VWS V14.01,2013-07-09 01:19:00,
2013-07-08 20:24:00,82.8,74.1,29.92,WNW,297,0.0,0.0,75,0.00,,---,0.00,VWS V14.01,2013-07-09 01:24:00,
2013-07-08 20:29:00,82.3,74.0,29.92,WNW,297,0.0,0.0,76,0.00,,---,0.00,VWS V14.01,2013-07-09 01:29:00,
2013-07-08 20:34:00,81.9,74.0,29.92,WNW,297,0.0,0.0,77,0.00,,---,0.00,VWS V14.01,2013-07-09 01:34:00,
2013-07-08 20:39:00,81.6,73.7,29.92,WNW,297,0.0,0.0,77,0.00,,---,0.00,VWS V14.01,2013-07-09 01:39:00,
2013-07-08 20:45:00,81.4,73.9,29.92,WNW,297,0.0,0.0,78,0.00,,---,0.00,VWS V14.01,2013-07-09 01:45:00,
2013-07-08 20:50:00,81.2,73.7,29.92,WNW,297,0.0,0.0,78,0.00,,---,0.00,VWS V14.01,2013-07-09 01:50:00,
2013-07-08 20:55:00,81.0,73.9,29.92,WNW,297,0.0,0.0,79,0.00,,---,0.00,VWS V14.01,2013-07-09 01:55:00,
2013-07-08 21:00:00,80.8,74.1,29.92,WNW,297,0.0,0.0,80,0.00,,---,0.00,VWS V14.01,2013-07-09 02:00:00,
2013-07-08 21:05:00,80.5,73.8,29.93,WNW,297,0.0,0.0,80,0.00,,---,0.00,VWS V14.01,2013-07-09 02:05:00,
2013-07-08 21:10:00,80.2,73.8,29.93,WNW,297,0.0,0.0,81,0.00,,---,0.00,VWS V14.01,2013-07-09 02:10:00,
2013-07-08 21:16:00,79.9,73.6,29.94,WNW,297,0.0,0.0,81,0.00,,---,0.00,VWS V14.01,2013-07-09 02:16:00,
2013-07-08 21:21:00,79.7,73.4,29.94,WNW,297,0.0,0.0,81,0.00,,---,0.00,VWS V14.01,2013-07-09 02:21:00,
2013-07-08 21:26:00,79.5,73.2,29.94,WNW,297,0.0,0.0,81,0.00,,---,0.00,VWS V14.01,2013-07-09 02:26:00,
2013-07-08 21:32:00,79.3,73.3,29.94,WNW,297,0.0,0.0,82,0.00,,---,0.00,VWS V14.01,2013-07-09 02:32:00,
2013-07-08 21:37:00,79.1,73.1,29.94,WNW,297,0.0,0.0,82,0.00,,---,0.00,VWS V14.01,2013-07-09 02:37:00,
2013-07-08 21:42:00,78.9,72.9,29.94,WNW,297,0.0,0.0,82,0.00,,---,0.00,VWS V14.01,2013-07-09 02:42:00,
2013-07-08 21:47:00,78.7,73.1,29.94,WNW,297,0.0,0.0,83,0.00,,---,0.00,VWS V14.01,2013-07-09 02:47:00,
2013-07-08 21:52:00,78.7,73.1,29.94,WNW,297,0.0,0.0,83,0.00,,---,0.00,VWS V14.01,2013-07-09 02:52:00,
2013-07-08 21:57:00,78.6,73.0,29.94,WNW,297,0.0,0.0,83,0.00,,---,0.00,VWS V14.01,2013-07-09 02:57:00,
2013-07-08 22:03:00,78.5,72.9,29.95,WNW,297,0.0,0.0,83,0.00,,---,0.00,VWS V14.01,2013-07-09 03:03:00,
2013-07-08 22:08:00,78.4,72.8,29.95,WNW,297,0.0,0.0,83,0.00,,---,0.00,VWS V14.01,2013-07-09 03:08:00,
2013-07-08 22:14:00,78.3,72.7,29.95,WNW,297,0.0,0.0,83,0.00,,---,0.00,VWS V14.01,2013-07-09 03:14:00,
2013-07-08 22:19:00,78.2,73.0,29.95,WNW,297,0.0,0.0,84,0.00,,---,0.00,VWS V14.01,2013-07-09 03:19:00,
2013-07-08 22:24:00,78.1,72.9,29.95,WNW,294,0.0,0.0,84,0.00,,---,0.00,VWS V14.01,2013-07-09 03:24:00,
2013-07-08 22:29:00,78.0,72.8,29.95,WNW,294,0.0,0.0,84,0.00,,---,0.00,VWS V14.01,2013-07-09 03:29:00,
2013-07-08 22:34:00,78.0,72.8,29.95,SW,219,0.0,0.0,84,0.00,,---,0.00,VWS V14.01,2013-07-09 03:34:00,
2013-07-08 22:39:00,78.0,73.1,29.95,SW,219,0.0,0.0,85,0.00,,---,0.00,VWS V14.01,2013-07-09 03:39:00,
2013-07-08 22:44:00,78.0,73.1,29.95,SSW,204,0.0,0.0,85,0.00,,---,0.00,VWS V14.01,2013-07-09 03:44:00,
2013-07-08 22:50:00,78.0,73.1,29.95,South,180,0.0,0.0,85,0.00,,---,0.00,VWS V14.01,2013-07-09 03:50:00,
2013-07-08 22:55:00,78.0,72.8,29.95,South,180,0.0,0.0,84,0.00,,---,0.00,VWS V14.01,2013-07-09 03:55:00,
2013-07-08 23:00:00,78.0,72.8,29.95,South,180,0.0,0.0,84,0.00,,---,0.00,VWS V14.01,2013-07-09 04:00:00,
2013-07-08 23:01:00,78.0,72.8,29.95,South,180,0.0,0.0,84,0.00,,---,0.00,VWS V14.01,2013-07-09 04:01:00,
2013-07-08 23:03:00,78.0,72.8,29.95,South,180,0.0,0.0,84,0.00,,---,0.00,VWS V14.01,2013-07-09 04:03:00,
2013-07-08 23:08:00,77.9,72.7,29.95,South,180,0.0,0.0,84,0.00,,---,0.00,VWS V14.01,2013-07-09 04:08:00,
2013-07-08 23:13:00,77.8,72.9,29.95,South,180,0.0,0.0,85,0.00,,---,0.00,VWS V14.01,2013-07-09 04:13:00,
2013-07-08 23:18:00,77.7,72.8,29.95,South,180,0.0,0.0,85,0.00,,---,0.00,VWS V14.01,2013-07-09 04:18:00,
2013-07-08 23:23:00,77.6,72.7,29.95,South,180,0.0,0.0,85,0.00,,---,0.00,VWS V14.01,2013-07-09 04:23:00,
2013-07-08 23:28:00,77.6,72.7,29.95,South,180,0.0,0.0,85,0.00,,---,0.00,VWS V14.01,2013-07-09 04:28:00,
2013-07-08 23:33:00,77.5,72.6,29.95,South,180,0.0,0.0,85,0.00,,---,0.00,VWS V14.01,2013-07-09 04:33:00,
2013-07-08 23:38:00,77.5,72.6,29.95,South,180,0.0,0.0,85,0.00,,---,0.00,VWS V14.01,2013-07-09 04:38:00,
2013-07-08 23:43:00,77.5,72.6,29.95,South,180,0.0,0.0,85,0.00,,---,0.00,VWS V14.01,2013-07-09 04:43:00,
2013-07-08 23:48:00,77.4,72.5,29.95,South,180,0.0,0.0,85,0.00,,---,0.00,VWS V14.01,2013-07-09 04:48:00,
2013-07-08 23:53:00,77.3,72.4,29.95,South,180,0.0,0.0,85,0.00,,---,0.00,VWS V14.01,2013-07-09 04:53:00,
2013-07-08 23:58:00,77.1,72.6,29.95,South,180,0.0,0.0,86,0.00,,---,0.00,VWS V14.01,2013-07-09 04:58:00,